Location: Gro� Glienicke
(52.4675°N, 13.1079°E)
Time: 17:57:12
(UTC+00:00)

Meteor 2-3 Rocket - Pass Details

Date: 06 July 2020
Orbit: 843 x 884 km, 81.2° (Epoch: 12 August)

Event Time Altitude Azimuth Distance (km) Brightness Sun altitude
Exits shadow 23:12:54 21° 197° (SSW) 1,827 4.9 -15.0°
Maximum altitude 23:16:48 81° 283° (WNW) 879 3.8 -15.0°
Drops below altitude 10° 23:22:34 10° 12° (NNE) 2,529 7.5 -14.9°
Sets 23:25:02 0° 13° (NNE) 3,477 8.6 -14.9°
